sat.trackr.live / text

‹ back to catalog

STARLINK-35858

NORAD 66833 · 2025-280N

PAYLOAD ACTIVE UNKNOWN

§ Identity

Operator
Country
US
Launch date
2025-12-02
Launch site
AFWTR
Launch vehicle
Mass (kg)
RCS (m²)

Purposes: comms

External: N2YO · Heavens-Above · Gunter

§ Orbital elements

Epoch: 2026-09-20T06:34:19.896096Z

Period
96.11 min
Inclination
70.0008°
Eccentricity
0.0003107
Mean motion
14.98322627 rev/d
Perigee alt
569.9 km
Apogee alt
574.2 km
Semi-major
6,950.2 km
B*
-1.0910e-4
RAAN
203.8020°
Arg perigee
269.3714°
Mean anomaly
90.7089°
Rev number
4,522

§ Raw data

STARLINK-358581 66833U 25280N   26263.27384139 -.00001394  00000+0 -10910-3 0  99912 66833  70.0008 203.8020 0003107 269.3714  90.7089 14.98322627 45221

JSON: /api/v1/satellites/66833 · /tle

For live sub-satellite position, see the globe view (requires WebGL).

§ Visibility from observer

Set your observer location to see the next 7 days of passes ≥ 10°. The values pass through the URL so the page stays shareable.

No JS? Fill the form by hand. The geolocation button needs JavaScript.